TimeCDT,TemperatureF,Dew PointF,Humidity,Sea Level PressureIn,VisibilityMPH,Wind Direction,Wind SpeedMPH,Gust SpeedMPH,PrecipitationIn,Events,Conditions,WindDirDegrees,DateUTC
12:01 AM,72.0,70.0,93,29.93,10.0,SE,9.2,-,N/A,,Mostly Cloudy,140,2014-05-11 05:01:00
12:11 AM,72.0,70.0,93,29.93,9.0,SE,6.9,-,N/A,,Overcast,140,2014-05-11 05:11:00
12:17 AM,72.0,70.0,93,29.92,9.0,SE,8.1,-,N/A,,Overcast,140,2014-05-11 05:17:00
1:53 AM,73.0,71.1,93,29.93,7.0,SSE,6.9,-,N/A,,Overcast,150,2014-05-11 06:53:00
2:40 AM,73.0,71.1,93,29.92,6.0,SE,6.9,-,N/A,,Overcast,140,2014-05-11 07:40:00
2:53 AM,72.0,71.1,97,29.93,5.0,SE,8.1,-,N/A,,Mostly Cloudy,140,2014-05-11 07:53:00
3:03 AM,72.0,71.1,97,29.92,5.0,SE,8.1,-,N/A,,Mostly Cloudy,140,2014-05-11 08:03:00
3:33 AM,73.0,71.1,93,29.92,5.0,SE,6.9,-,N/A,,Overcast,130,2014-05-11 08:33:00
3:53 AM,73.0,71.1,93,29.93,5.0,SE,5.8,-,N/A,,Overcast,130,2014-05-11 08:53:00
4:15 AM,72.0,71.1,97,29.92,5.0,SE,4.6,-,N/A,,Overcast,140,2014-05-11 09:15:00
4:35 AM,73.0,71.1,93,29.92,5.0,SE,6.9,-,N/A,,Overcast,140,2014-05-11 09:35:00
4:53 AM,73.0,71.1,93,29.93,6.0,SSE,6.9,-,N/A,,Overcast,150,2014-05-11 09:53:00
5:07 AM,73.0,71.1,93,29.92,5.0,SE,6.9,-,N/A,,Mostly Cloudy,140,2014-05-11 10:07:00
5:49 AM,73.4,71.6,94,29.93,5.0,ESE,9.2,-,N/A,,Mostly Cloudy,120,2014-05-11 10:49:00
5:53 AM,73.0,71.1,93,29.94,6.0,SE,8.1,-,N/A,,Mostly Cloudy,130,2014-05-11 10:53:00
6:53 AM,73.0,71.1,93,29.96,5.0,SE,11.5,-,N/A,,Overcast,140,2014-05-11 11:53:00
7:53 AM,73.9,71.1,91,29.96,6.0,SE,10.4,-,0.00,,Overcast,130,2014-05-11 12:53:00
8:50 AM,75.2,71.6,89,29.96,6.0,SE,10.4,-,N/A,,Mostly Cloudy,140,2014-05-11 13:50:00
8:53 AM,75.9,72.0,87,29.97,6.0,SE,15.0,20.7,N/A,,Mostly Cloudy,140,2014-05-11 13:53:00
9:03 AM,77.0,72.0,84,29.96,7.0,SE,13.8,-,N/A,,Mostly Cloudy,140,2014-05-11 14:03:00
9:53 AM,80.1,71.1,74,29.97,9.0,SE,16.1,-,N/A,,Mostly Cloudy,140,2014-05-11 14:53:00
10:53 AM,84.0,70.0,63,29.97,10.0,SE,13.8,-,N/A,,Scattered Clouds,140,2014-05-11 15:53:00
11:53 AM,84.0,69.1,61,29.96,10.0,SSE,12.7,19.6,N/A,,Mostly Cloudy,160,2014-05-11 16:53:00
12:53 PM,88.0,70.0,55,29.93,10.0,ESE,11.5,21.9,N/A,,Scattered Clouds,120,2014-05-11 17:53:00
1:53 PM,84.0,71.1,65,29.92,10.0,SSE,11.5,-,0.00,,Scattered Clouds,150,2014-05-11 18:53:00
2:53 PM,84.9,70.0,61,29.90,10.0,SE,13.8,-,N/A,,Scattered Clouds,130,2014-05-11 19:53:00
4:53 PM,82.9,72.0,69,29.87,10.0,ESE,20.7,31.1,N/A,,Mostly Cloudy,120,2014-05-11 21:53:00
5:11 PM,77.0,71.1,82,29.87,1.8,SSE,16.1,28.8,0.09,Rain,Heavy Rain,150,2014-05-11 22:11:00
5:13 PM,75.0,72.0,90,29.87,3.0,SE,15.0,25.3,0.15,Rain-Thunderstorm,Heavy Rain,140,2014-05-11 22:13:00
5:32 PM,75.9,73.0,91,29.88,3.0,ESE,18.4,24.2,0.25,Rain,Light Rain,110,2014-05-11 22:32:00
5:48 PM,75.2,73.4,94,29.88,3.0,ESE,18.4,-,0.25,Thunderstorm,Mostly Cloudy,110,2014-05-11 22:48:00
5:53 PM,77.0,73.9,90,29.89,3.0,ESE,19.6,-,0.25,Thunderstorm,Mostly Cloudy,120,2014-05-11 22:53:00
6:33 PM,75.9,73.0,91,29.89,7.0,SE,15.0,27.6,0.02,Rain-Thunderstorm,Light Rain,130,2014-05-11 23:33:00
6:41 PM,75.0,73.0,94,29.88,7.0,SE,18.4,27.6,0.02,Rain,Light Rain,140,2014-05-11 23:41:00
6:53 PM,75.0,73.0,94,29.87,6.0,SSE,18.4,27.6,0.02,Rain,Light Rain,150,2014-05-11 23:53:00
7:53 PM,73.0,70.0,90,29.87,10.0,SSE,10.4,-,0.00,,Clear,160,2014-05-12 00:53:00
8:53 PM,73.9,71.1,91,29.90,10.0,ESE,10.4,-,N/A,,Clear,120,2014-05-12 01:53:00
9:23 PM,73.0,71.1,93,29.90,10.0,East,5.8,-,N/A,,Mostly Cloudy,80,2014-05-12 02:23:00
9:36 PM,73.0,71.1,93,29.91,10.0,East,6.9,-,N/A,,Overcast,90,2014-05-12 02:36:00
9:53 PM,73.0,70.0,90,29.92,10.0,East,6.9,-,N/A,,Overcast,90,2014-05-12 02:53:00
10:43 PM,73.9,72.0,93,29.90,10.0,ESE,8.1,-,N/A,,Overcast,110,2014-05-12 03:43:00
10:53 PM,75.0,72.0,90,29.91,10.0,ESE,9.2,-,N/A,,Overcast,110,2014-05-12 03:53:00
11:00 PM,75.0,72.0,90,29.89,10.0,ESE,9.2,-,N/A,,Overcast,110,2014-05-12 04:00:00
11:19 PM,75.0,73.0,94,29.89,10.0,SE,9.2,-,N/A,,Overcast,130,2014-05-12 04:19:00
11:31 PM,75.0,73.0,94,29.89,9.0,SSE,9.2,-,N/A,,Overcast,150,2014-05-12 04:31:00
11:53 PM,75.9,73.9,94,29.89,9.0,SSE,10.4,-,N/A,,Overcast,160,2014-05-12 04:53:00